Weather in Sara

Russia / Ulyanovsk Oblast     54°38′29″N   46°45′21″E
temp.,
°C
wind,
m/s
gust,
m/s
humid.,
%
clouds,
%
prec.,
mm/h
press.,
hPa
HPBL,
m
8 march, mon
mon801:00−5ssw61492100 0.4 995852
04:00−2sw91590100 1.3 9931172
07:00−6w5139275 0.0 995501
10:00−7wsw6129078 0.1 998655
13:00−5wsw598693 0.0 1000669
16:00−4wsw368887 0.1 999725
19:00−6ese1297100 0.9 100028
22:00−6nw81391100 2.1 1003820
9 march, tue
tue901:00−12w369446 0.1 1005127
04:00−16wsw229723 0.1 100822
07:00−17wsw229856 0.0 100920
10:00−14w249569 0.1 1010193
13:00−11wnw2391100 0.0 1010367
16:00−10nw3490100 0.1 1011487
19:00−13nw3795100 0.1 1011233
22:00−14nw389698 0.1 1013250
10 march, wed
wed1001:00−15nnw389794 0.1 1014223
04:00−18nnw499796 0.1 1015282
07:00−20nnw4997100 0.1 1016335
10:00−21nnw5995100 0.1 1018414
13:00−19nw5893100 0.0 1019492
16:00−19nw5992100 0.1 1021591
19:00−21nw3996100 0.0 1023225
22:00−24nnw369997 0.1 1024112
11 march, thu
thu1101:00−25nw239960 0.0 102655
04:00−26nw239967 0.0 102757
07:00−26wnw239983 0.0 102860
10:00−21wnw489684 0.0 1028308
13:00−16wnw599173 0.0 1028373
16:00−13wnw5118669 0.0 1028466
19:00−15wnw4119253 0.0 1028281
22:00−17wnw389656 0.0 1030167
12 march, fri
fri1201:00−18wnw239880 0.0 103143
04:00−19wnw229981 0.0 103220
07:00−20w229971 0.0 103324
10:00−16w259362 0.0 1034196
13:00−13wsw35900 0.0 1034304
16:00−11wsw36870 0.0 1033348
19:00−16wsw23900 0.0 103334
22:00−18sw23910 0.0 103424